Regional Weather Roundup
Issued by NWS Sterling, VA

Current Version | Previous Version | Text Only | Print | Product List | Glossary On
Versions: 1 2 3 4 5 6 7 8 9 10 11 12 13 14 15 16 17 18 19 20 21 22 23 24 25 26 27 28 29 30 31 32 33 34 35 36 37 38 39 40 41 42 43 44 45 46 47 48 49 50
000
ASUS41 KLWX 302210
RWRLWX

REGIONAL WEATHER ROUNDUP
NATIONAL WEATHER SERVICE BALTIMORE MD/WASHINGTON DC
600 PM EDT TUE SEP 30 2014

Note: "FAIR" indicates few or no clouds below 12,000 feet
with no significant weather and/or obstructions to visibility.
 TC=TEMPERATURE CELSIUS

 * =Non NWS site. Station does not report precipitation (e.g. rain,
    snow, etc.), thunder, or fog.

DCZ001-MDZ009-015-VAZ040>042-051-053>054-302300-
WASHINGTON METRO

CITY           SKY/WX    TMP DP  RH WIND       PRES   REMARKS
WASHINGTON NAT MOCLDY    78  60  53 S7        29.87S
DULLES         PTCLDY    71  61  70 S6        29.87F
ANDREWS AFB    CLEAR     73  58  59 E5        29.87S
QUANTICO       PTCLDY    72  62  71 S3        29.88S
COLLEGE PARK*  CLEAR     77  59  53 E7        29.86S
LEESBURG*      CLEAR     72  64  78 SW6       29.89R
MANASSAS*      CLEAR     72  64  78 SE7       29.87F
GAITHERSBURG*  CLEAR     72  59  64 SE6       29.90F

$$

MDZ006>007-011-014-302300-
BALTIMORE METRO

CITY           SKY/WX    TMP DP  RH WIND       PRES   REMARKS
BWI AIRPORT    PTCLDY    74  58  57 SE5       29.86S
MD SCIENCE CTR   N/A     75  55  49 MISG      29.87S
MARTIN STATE   PTCLDY    73  64  73 CALM      29.88S
ANNAPOLIS      CLEAR     73  62  68 SE3       29.87R
FORT MEADE*    CLEAR     70  59  68 SE6       29.89S

$$

MDZ012-015-019>023-302300-
MARYLAND EASTERN SHORE

CITY           SKY/WX    TMP DP  RH WIND       PRES   REMARKS
OCEAN CITY     CLEAR     70  62  76 E10       29.88F
SALISBURY      CLEAR     74  62  66 E8        29.87S
BAY BRIDGE AP*   N/A     72  61  68 CALM      29.87S
CAMBRIDGE*     PTCLDY    73  63  68 CALM      29.86S
EASTON*        MOCLDY    77  64  65 NW6       29.90S

$$

MDZ017>025-302300-
SOUTHERN MARYLAND

CITY           SKY/WX    TMP DP  RH WIND       PRES   REMARKS
PATUXENT RIVER PTCLDY    73  61  65 SE5       29.86S
ST INIGOES     CLEAR     73  60  63 SW5       29.87R
LEONARDTOWN*   CLEAR     72  61  68 CALM      29.88F

$$

MDZ003>005-302300-
NORTH CENTRAL MARYLAND

CITY           SKY/WX    TMP DP  RH WIND       PRES   REMARKS
FREDERICK*     PTCLDY    79  64  61 VRB5      29.88S
HAGERSTOWN APT PTCLDY    74  60  61 SE7       29.86R
WESTMINSTER*   PTCLDY    73  61  64 SE7       29.88R

$$

MDZ501>502-302300-
WESTERN MARYLAND

CITY           SKY/WX    TMP DP  RH WIND       PRES   REMARKS
OAKLAND*       PTSUNNY   54 N/A N/A NE3       29.98F HAZE
CUMBERLAND*    PTSUNNY   73  46  38 NW10G26   29.91R

$$

VAZ025>031-302300-
SHENANDOAH VALLEY

CITY           SKY/WX    TMP DP  RH WIND       PRES   REMARKS
WINCHESTER*    MOSUNNY   72  61  68 SE6       29.85S
STAUNTON*      PTSUNNY   73  58  57 S7        29.88S HAZE

$$

WVZ021-048>050-054>055-302300-
EASTERN WEST VIRGINIA PANHANDLE

CITY           SKY/WX    TMP DP  RH WIND       PRES   REMARKS
MARTINSBURG    PTCLDY    72  59  63 E7        29.87R
PETERSBURG*    MOSUNNY  N/A N/A N/A N13       29.86R

$$

VAZ036>039-050-302300-
CENTRAL FOOTHILLS

CITY           SKY/WX    TMP DP  RH WIND       PRES   REMARKS
CHARLOTTESVILL MOSUNNY   68  62  81 S6        29.89R
ORANGE*        CLOUDY    70  61  73 CALM      29.90S

$$

VAZ055>057-302300-
NORTH AND CENTRAL PIEDMONT

CITY           SKY/WX    TMP DP  RH WIND       PRES   REMARKS
FREDERICKSBRG* CLEAR     74  62  66 CALM      29.86F
STAFFORD*      CLEAR     72  62  69 CALM      29.91F

$$

NCZ024-NYZ072-PAZ021-071-VAZ022-071-302300-
OTHER REGIONAL OBSERVATIONS

CITY           SKY/WX    TMP DP  RH WIND       PRES   REMARKS
NEW YORK CITY  CLOUDY    67  58  72 VRB6      29.96S
PHILADELPHIA   MOCLDY    73  58  59 E14       29.89R
PITTSBURGH     MOSUNNY   66  57  72 SW6       29.90R
ROANOKE        MOSUNNY   80  51  36 W6G28     29.89R
RICHMOND       PTCLDY    71  62  73 E6        29.87S
RALEIGH        MOSUNNY   73  62  68 E5        29.88R

$$

ANZ530>537-302300-
MARINE OBSERVATIONS

STATION/POSITION TIME  TEMP    WIND        PRES
                       AIR SEA DIR/SP/G
                 (UTC) (F)     (DEG/KT/KT) (MB)
THOMAS PT LIGHT  2200   73 73  230/  2/  2 1012.4S
BALT KEY BRIDGE  2200   74     100/  4/  4 1011.3S
COVE POINT       2200   71     190/  1/  2 1011.3F
LEWISETTA        2200   72 72  110/  4/  4 1011.0R
SOLOMONS ISLAND  2200      74                N/A
PINEY POINT      2200          150/  4/  5   N/A

$$




USA.gov is the U.S. government's official web portal to all federal, state and local government web resources and services.